User: anonymous   Login
Location: Columbia
(38.9520°N, 92.3340°W)
Time: 15:04:37
(UTC-05:00)
Language:

CZ-4B R/B - Orbit

View from above orbital plane
View from above orbital plane
View from above satellite
View from above satellite

Ground track
Ground track

The orbit data is extracted from the following two-line orbital elements,

1 29093U 06015B   16180.81677916 +.00003297 +00000-0 +86624-4 0  9997
2 29093 097.4844 278.3717 0070221 144.9148 215.6751 15.36856228563107
Epoch (UTC): 28 June 2016 19:36:09
Eccentricity: 0.0070221
inclination: 97.4844°
perigee height: 407 km
apogee height: 503 km
right ascension of ascending node: 278.3717°
argument of perigee: 144.9148°
revolutions per day: 15.36856228
mean anomaly at epoch: 215.6751°
orbit number at epoch: 56310

The dashed part of the orbit path shows where the satellite is in the earth's shadow,  

DLR